To NAV CANADA Home Page Login to a new session Search on AWWS site Feedback and Comments Disclaimer Vers la page française équivalente Tips FAQ What's new on the site To the Forecasts and Observations / NOTAM section To "File a Flight Plan" website Publications and other links Update of the User's profile FIC Telephone Numbers My Weather Data Folder Route Weather Data Regional Weather Data Local Weather Data To the Forecasts and Observations / NOTAM section
Request Generated 11/29/2015 at 01:31:42 UTC . Weather information available at that time is displayed.



LWIS CYKG 290100Z AUTO 28023G29KT M19/M22 A2986=
LWIS CYKG 290000Z AUTO 28027KT M19/M22 A2985=
LWIS CYKG 282300Z AUTO 29022G27KT M19/M22 A2984=

CYKG - No TAF is issued for this station

Your time UTC time
Weather data provided by Environment Canada and NAV CANADA